CW6037 Weather Reports


time (UTC)temp
C
wind
direction
speed
KPH
gust
KPH
rain 1hr
cm
rain 24hr
cm
rain mn
cm
humidity
%
barometer
mb
20260510072718 8 272 0.0 1.6 0.00 1.09 0.00 98 1009.9
20260510072220 8 272 0.0 1.6 0.00 1.09 0.00 98 1009.9
20260510071716 8 272 0.0 1.6 0.00 1.12 0.00 98 1010.0
20260510071214 8 272 0.0 1.6 0.00 1.12 0.00 98 1010.0
20260510070654 8 272 0.0 1.6 0.00 1.14 0.00 98 1010.2
20260510065700 7 272 1.6 4.8 0.00 1.14 0.00 98 1010.3
20260510065200 7 272 1.6 4.8 0.00 1.14 0.00 98 1010.4
20260510064656 7 195 1.6 4.8 0.00 1.17 0.00 98 1010.3
20260510064420 7 155 1.6 4.8 0.00 1.17 0.00 98 1010.4
20260510063658 7 155 1.6 4.8 0.00 1.19 0.00 98 1010.7
20260510063154 7 155 1.6 4.8 0.00 1.19 0.00 98 1010.9
20260510062654 7 155 0.0 3.2 0.00 1.19 0.00 98 1011.0
20260510062154 7 155 0.0 1.6 0.00 1.19 0.00 98 1011.3
20260510061651 7 155 0.0 1.6 0.00 1.22 0.00 98 1011.0
20260510061152 7 155 0.0 1.6 0.00 1.22 0.00 98 1011.0
20260510060653 7 155 0.0 3.2 0.00 1.22 0.00 98 1011.0
20260510060151 7 155 0.0 3.2 0.00 1.22 0.00 98 1011.2
20260510055652 7 155 0.0 3.2 0.00 1.22 0.00 97 1011.4
20260510055405 7 155 0.0 3.2 0.00 1.24 0.00 97 1011.3
20260510054648 7 155 0.0 4.8 0.00 1.24 0.00 97 1011.4
20260510054148 6 155 1.6 4.8 0.00 1.24 0.00 97 1011.4
20260510053648 6 155 1.6 4.8 0.00 1.24 0.00 97 1011.4
20260510053150 6 155 1.6 8.0 0.00 1.24 0.00 97 1011.7
20260510052650 6 155 1.6 8.0 0.00 1.24 0.00 97 1011.5
20260510052150 6 203 1.6 4.8 0.00 1.24 0.00 96 1011.4
20260510051648 6 269 0.0 3.2 0.00 1.24 0.00 96 1011.4
20260510051149 6 269 0.0 1.6 0.00 1.27 0.00 96 1010.9
20260510050648 6 269 0.0 1.6 0.00 1.27 0.00 96 1010.9
20260510050150 6 269 0.0 1.6 0.00 1.27 0.00 96 1010.9
20260510045650 6 269 0.0 1.6 0.00 1.27 0.00 96 1010.9
20260510045148 6 269 0.0 1.6 0.00 1.27 0.00 96 1010.7
20260510044650 6 269 1.6 3.2 0.00 1.27 0.00 96 1010.7
20260510044150 7 269 1.6 4.8 0.00 1.27 0.00 96 1010.8
20260510043911 7 269 1.6 4.8 0.00 1.27 0.00 96 1010.9
20260510043151 7 269 0.0 3.2 0.00 1.27 0.00 96 1010.8
20260510043140 7 269 0.0 1.6 0.00 1.27 0.00 96 1010.7
20260510042150 7 269 0.0 1.6 0.00 1.27 0.00 96 1010.6
20260510041646 7 269 0.0 3.2 0.00 1.27 0.00 96 1010.7
20260510041146 7 269 0.0 3.2 0.00 1.27 0.00 96 1010.6
20260510040645 7 269 0.0 1.6 0.00 1.27 0.00 96 1010.4
20260510040145 7 269 0.0 3.2 0.00 1.27 0.00 96 1010.3
20260510035640 7 269 0.0 3.2 0.00 1.27 1.27 96 1009.9
20260510035140 7 269 0.0 1.6 0.00 1.27 1.27 96 1009.7
20260510034638 7 269 0.0 1.6 0.00 1.27 1.27 96 1009.8
20260510034136 7 269 0.0 0.0 0.00 1.27 1.27 96 1009.8
20260510033636 7 269 0.0 1.6 0.00 1.27 1.27 96 1009.8
20260510033136 7 269 0.0 1.6 0.00 1.27 1.27 96 1009.6
20260510032637 7 269 0.0 1.6 0.00 1.27 1.27 96 1009.7
20260510032135 7 269 0.0 1.6 0.00 1.27 1.27 95 1009.8
20260510031859 7 269 0.0 0.0 0.00 1.27 1.27 95 1009.9
20260510031136 7 269 0.0 1.6 0.00 1.27 1.27 96 1009.8
20260510031129 7 269 0.0 1.6 0.00 1.27 1.27 95 1009.7
20260510030135 7 269 0.0 1.6 0.00 1.27 1.27 95 1009.7
20260510025854 7 269 1.6 3.2 0.00 1.27 1.27 95 1009.8
20260510025128 7 269 1.6 4.8 0.00 1.27 1.27 95 1009.8
20260510024845 7 269 1.6 4.8 0.00 1.27 1.27 95 1009.7
20260510024127 7 269 0.0 1.6 0.00 1.27 1.27 95 1009.9
20260510023626 7 269 0.0 1.6 0.00 1.27 1.27 94 1009.9
20260510023350 7 269 0.0 0.0 0.00 1.27 1.27 94 1009.7
20260510022624 7 269 0.0 0.0 0.00 1.27 1.27 95 1009.6
20260510022122 8 269 0.0 1.6 0.00 1.27 1.27 95 1009.6
20260510021621 8 269 0.0 1.6 0.00 1.27 1.27 95 1009.6
20260510021556 8 269 0.0 1.6 0.00 1.27 1.27 94 1009.6
20260510020845 8 269 0.0 1.6 0.00 1.27 1.27 94 1009.7
20260510020116 8 269 0.0 1.6 0.00 1.27 1.27 94 1009.8
20260510015616 8 269 0.0 1.6 0.00 1.27 1.27 94 1009.8
20260510015116 8 269 1.6 3.2 0.00 1.27 1.27 94 1009.8
20260510014616 8 269 1.6 3.2 0.00 1.27 1.27 94 1009.7
20260510014114 8 269 1.6 3.2 0.00 1.27 1.27 94 1009.5
20260510013614 8 269 0.0 1.6 0.00 1.27 1.27 94 1009.4
20260510013111 8 269 0.0 0.0 0.00 1.27 1.27 94 1009.4
20260510012611 9 269 0.0 0.0 0.00 1.27 1.27 93 1009.4
20260510012112 9 269 0.0 0.0 0.00 1.27 1.27 93 1009.5
20260510011608 9 269 0.0 0.0 0.00 1.27 1.27 93 1009.4
20260510011108 9 269 0.0 1.6 0.00 1.27 1.27 93 1009.4
20260510010610 10 269 0.0 1.6 0.00 1.27 1.27 93 1009.3
20260510010550 10 269 0.0 1.6 0.00 1.27 1.27 93 1009.1
20260510005606 10 269 0.0 1.6 0.00 1.27 1.27 93 1009.0
20260510005330 10 269 0.0 3.2 0.00 1.27 1.27 93 1009.2
20260510004602 10 269 1.6 3.2 0.00 1.27 1.27 93 1009.1
20260510004101 10 269 1.6 3.2 0.00 1.27 1.27 93 1009.1
20260510003604 10 269 0.0 3.2 0.00 1.27 1.27 93 1009.0
20260510003101 11 269 0.0 1.6 0.00 1.27 1.27 93 1009.0
20260510002819 11 269 0.0 1.6 0.00 1.27 1.27 93 1009.0
20260510002100 11 269 0.0 3.2 0.00 1.27 1.27 92 1009.1
20260510001600 11 269 1.6 3.2 0.00 1.27 1.27 92 1009.0
20260510001321 11 270 0.0 1.6 0.00 1.27 1.27 92 1009.1
20260510000601 11 270 0.0 1.6 0.00 1.27 1.27 91 1009.1
20260510000056 12 270 0.0 1.6 0.00 1.27 1.27 91 1008.8
20260510000043 12 270 0.0 4.8 0.00 1.27 1.27 91 1008.8
20260509235056 12 270 1.6 6.4 0.00 1.27 1.27 91 1008.8
20260509234553 12 242 1.6 6.4 0.00 1.27 1.27 91 1008.5
20260509234052 12 278 1.6 4.8 0.00 1.27 1.27 91 1008.5
20260509233552 12 277 0.0 3.2 0.00 1.27 1.27 90 1008.4
20260509233052 12 277 1.6 6.4 0.00 1.27 1.27 90 1008.4
20260509232816 12 277 3.2 9.7 0.00 1.27 1.27 89 1008.5
20260509232046 12 276 4.8 12.9 0.00 1.27 1.27 89 1008.5
20260509231546 12 256 4.8 12.9 0.00 1.27 1.27 90 1008.5
20260509231044 13 283 4.8 12.9 0.00 1.27 1.27 90 1008.4
20260509230802 13 269 1.6 12.9 0.00 1.27 1.27 91 1008.4
20260509230045 13 225 1.6 9.7 0.00 1.27 1.27 91 1008.3
20260509225544 13 168 3.2 11.3 0.00 1.27 1.27 91 1008.1
20260509225046 13 137 3.2 11.3 0.00 1.27 1.27 92 1008.2
20260509224544 13 273 3.2 11.3 0.00 1.27 1.27 92 1008.2
20260509224042 12 192 3.2 9.7 0.00 1.27 1.27 92 1008.2
20260509223541 12 250 3.2 8.0 0.00 1.27 1.27 93 1008.2
20260509223044 12 223 3.2 8.0 0.00 1.27 1.27 92 1008.2
20260509222539 12 173 3.2 9.7 0.00 1.27 1.27 93 1008.3
20260509222040 12 230 1.6 9.7 0.00 1.27 1.27 94 1008.3
20260509221542 12 236 1.6 6.4 0.00 1.27 1.27 94 1008.5
20260509221040 12 252 1.6 9.7 0.00 1.27 1.27 95 1008.5
20260509220538 12 274 1.6 9.7 0.00 1.27 1.27 95 1008.6
20260509220038 12 266 1.6 6.4 0.00 1.27 1.27 95 1008.7
20260509215538 12 267 3.2 6.4 0.03 1.27 1.27 95 1008.7
20260509215040 12 247 3.2 11.3 0.03 1.27 1.27 95 1008.7
20260509214803 12 244 3.2 11.3 0.03 1.27 1.27 95 1008.7
20260509214037 12 152 3.2 8.0 0.03 1.27 1.27 95 1008.8
20260509213538 11 259 3.2 8.0 0.03 1.27 1.27 95 1008.9
20260509213034 11 207 1.6 8.0 0.05 1.27 1.27 95 1008.9
20260509212534 11 219 1.6 9.7 0.05 1.27 1.27 94 1009.0
20260509212034 11 227 3.2 9.7 0.05 1.27 1.27 94 1009.1
20260509211534 11 217 3.2 11.3 0.05 1.27 1.27 94 1009.0
20260509211033 11 244 3.2 12.9 0.05 1.27 1.27 94 1009.0
20260509210534 11 21 3.2 12.9 0.05 1.27 1.27 94 1009.0
20260509210033 12 219 3.2 9.7 0.05 1.27 1.27 94 1009.0
20260509205534 11 215 4.8 14.5 0.05 1.24 1.24 94 1009.1
20260509205300 11 184 4.8 14.5 0.05 1.24 1.24 93 1009.1
20260509204534 11 261 3.2 12.9 0.08 1.24 1.24 94 1009.1
20260509204033 12 215 3.2 12.9 0.08 1.24 1.24 94 1009.0
20260509203534 12 191 3.2 12.9 0.08 1.24 1.24 94 1009.0
20260509203036 11 191 1.6 6.4 0.08 1.22 1.24 95 1009.0
20260509202533 11 244 3.2 8.0 0.08 1.22 1.22 95 1009.0
20260509202034 11 180 3.2 8.0 0.08 1.22 1.22 94 1009.0
20260509201753 11 219 3.2 9.7 0.08 1.22 1.22 95 1009.1
20260509201034 11 125 3.2 9.7 0.08 1.22 1.22 94 1009.2
20260509200532 11 169 3.2 11.3 0.08 1.22 1.22 95 1009.2
20260509200030 11 261 4.8 11.3 0.10 1.22 1.22 95 1009.3
20260509195529 11 260 4.8 16.1 0.08 1.19 1.19 95 1009.4
20260509195251 11 167 3.2 16.1 0.10 1.19 1.19 94 1009.6
20260509194543 11 153 3.2 12.9 0.10 1.17 1.17 94 1009.7
20260509194532 11 223 3.2 11.3 0.10 1.17 1.17 94 1009.6
20260509193756 11 278 3.2 12.9 0.10 1.17 1.17 94 1009.7
20260509193029 11 286 3.2 12.9 0.10 1.14 1.14 94 1009.8
20260509192528 11 280 3.2 9.7 0.10 1.14 1.14 94 1009.9
20260509192029 11 267 3.2 8.0 0.13 1.14 1.14 94 1009.9
20260509191525 11 274 3.2 11.3 0.15 1.14 1.14 94 1009.8
20260509191245 11 221 3.2 14.5 0.15 1.14 1.14 94 1009.9
20260509190522 11 213 4.8 14.5 0.18 1.14 1.14 93 1009.9
20260509190020 11 161 4.8 12.9 0.15 1.12 1.12 93 1010.0
20260509185518 11 5 4.8 14.5 0.15 1.12 1.12 93 1010.0
20260509185018 11 227 4.8 14.5 0.15 1.09 1.09 93 1010.2
20260509184519 11 212 4.8 19.3 0.13 1.07 1.09 93 1010.2
20260509184248 11 219 4.8 19.3 0.15 1.07 1.07 93 1010.0
20260509183517 11 185 3.2 12.9 0.15 1.07 1.07 94 1010.0
20260509183242 11 175 3.2 12.9 0.13 1.04 1.04 94 1010.0
20260509182515 11 217 3.2 11.3 0.13 1.04 1.04 94 1009.8
20260509182018 11 136 3.2 9.7 0.13 1.02 1.02 95 1010.0
20260509181736 11 165 1.6 9.7 0.10 0.99 1.02 94 1009.9
20260509181015 11 223 3.2 14.5 0.10 0.99 0.99 95 1010.0
20260509180515 11 238 3.2 14.5 0.10 0.97 0.97 94 1010.0
20260509180238 11 98 4.8 14.5 0.13 0.97 0.97 94 1010.0
20260509175507 11 5 3.2 12.9 0.13 0.94 0.97 94 1010.0
20260509175219 11 238 3.2 12.9 0.15 0.94 0.94 95 1010.0
20260509174724 11 256 3.2 12.9 0.18 0.94 0.94 95 1010.0
20260509174000 11 148 3.2 12.9 0.20 0.91 0.91 96 1010.0
20260509173458 11 289 3.2 12.9 0.23 0.91 0.91 95 1010.0
20260509173224 11 254 3.2 11.3 0.25 0.91 0.91 95 1010.0
20260509172458 11 183 3.2 9.7 0.25 0.91 0.91 95 1009.8
20260509172443 11 230 3.2 9.7 0.25 0.89 0.91 95 1009.9
20260509171455 11 207 1.6 6.4 0.25 0.91 0.89 95 1009.8
20260509170953 11 243 1.6 6.4 0.25 0.94 0.89 95 1009.8
20260509170454 11 214 3.2 9.7 0.25 0.91 0.86 95 1009.8
20260509165954 11 211 1.6 9.7 0.23 0.91 0.84 96 1010.0
20260509165453 11 227 0.0 3.2 0.20 0.89 0.81 96 1010.0
20260509164955 11 227 1.6 8.0 0.18 0.91 0.79 95 1010.0
20260509164714 11 227 3.2 8.0 0.15 0.94 0.76 95 1010.2
20260509163952 11 238 1.6 4.8 0.10 0.94 0.71 95 1010.0
20260509163454 11 218 1.6 6.4 0.10 0.94 0.69 95 1010.0
20260509162947 11 196 1.6 8.0 0.08 0.91 0.66 95 1010.0
20260509162444 11 207 1.6 8.0 0.08 0.91 0.66 95 1010.0
20260509161946 11 214 1.6 4.8 0.05 0.89 0.64 96 1010.0
20260509161445 11 215 1.6 3.2 0.08 0.89 0.64 96 1010.2
20260509160947 11 215 1.6 4.8 0.08 0.89 0.64 96 1010.3
20260509160445 11 215 1.6 4.8 0.05 0.86 0.61 96 1010.4
20260509155945 11 246 1.6 4.8 0.05 0.86 0.61 96 1010.5
20260509155445 11 225 1.6 4.8 0.08 0.86 0.61 96 1010.4
20260509155206 11 225 1.6 4.8 0.08 0.86 0.61 96 1010.5
20260509154707 11 211 1.6 4.8 0.08 0.86 0.61 97 1010.4
20260509153945 11 212 1.6 4.8 0.08 0.86 0.61 97 1010.5
20260509153445 11 237 1.6 3.2 0.08 0.84 0.58 97 1010.5
20260509152943 11 237 1.6 4.8 0.08 0.84 0.58 97 1010.5
20260509152443 10 250 1.6 6.4 0.08 0.84 0.58 97 1010.6
20260509151945 10 24 0.0 6.4 0.10 0.84 0.58 97 1010.6
20260509151441 10 230 0.0 3.2 0.08 0.81 0.56 97 1010.6
20260509150940 10 230 0.0 1.6 0.10 0.81 0.56 97 1010.7
20260509150439 10 230 0.0 1.6 0.10 0.81 0.56 97 1010.8
20260509145938 10 230 0.0 1.6 0.13 0.81 0.56 97 1011.0
20260509145435 10 230 0.0 1.6 0.10 0.79 0.53 97 1010.9
20260509144935 10 230 0.0 3.2 0.13 0.81 0.53 97 1010.9
20260509144436 10 230 0.0 3.2 0.13 0.81 0.53 97 1010.9
20260509143933 10 230 0.0 1.6 0.15 0.81 0.53 97 1010.9
20260509143434 10 230 0.0 1.6 0.13 0.79 0.51 97 1010.9
20260509142935 10 230 0.0 1.6 0.13 0.79 0.51 97 1010.9
20260509142431 10 230 0.0 1.6 0.15 0.79 0.51 97 1011.0
20260509141931 10 230 0.0 1.6 0.13 0.76 0.48 98 1011.0
20260509141648 10 230 0.0 1.6 0.15 0.76 0.48 97 1010.9
20260509141153 10 230 0.0 1.6 0.15 0.74 0.46 98 1010.9
20260509140428 10 230 0.0 1.6 0.15 0.74 0.46 97 1010.9
20260509135929 10 230 0.0 1.6 0.15 0.71 0.43 97 1011.0
20260509135657 10 230 0.0 1.6 0.15 0.71 0.43 97 1010.8
20260509134929 10 230 0.0 1.6 0.13 0.69 0.41 97 1010.7
20260509134429 10 230 0.0 1.6 0.15 0.69 0.41 97 1010.8
20260509133928 10 230 0.0 1.6 0.13 0.66 0.41 97 1010.8
20260509133429 10 230 0.0 1.6 0.13 0.66 0.38 97 1010.8
20260509132925 10 230 0.0 1.6 0.13 0.66 0.38 97 1010.7
20260509132427 10 230 0.0 1.6 0.10 0.64 0.36 97 1010.6
20260509131925 10 230 0.0 1.6 0.10 0.64 0.36 97 1010.7
20260509131424 9 230 0.0 0.0 0.08 0.61 0.33 97 1010.7
20260509130925 9 230 0.0 1.6 0.05 0.58 0.33 97 1010.7
20260509130422 9 230 0.0 1.6 0.05 0.58 0.30 97 1010.8
20260509125921 9 230 0.0 1.6 0.03 0.56 0.28 97 1010.8
20260509125421 9 230 0.0 1.6 0.03 0.56 0.28 97 1010.7
20260509125143 9 230 0.0 1.6 0.03 0.56 0.28 97 1010.6
20260509124423 9 230 0.0 1.6 0.00 0.53 0.25 97 1010.7
20260509124147 9 230 0.0 1.6 0.00 0.53 0.25 97 1010.6
20260509123419 9 230 0.0 1.6 0.00 0.53 0.25 97 1010.7
20260509122917 9 230 0.0 1.6 0.00 0.53 0.25 97 1010.6
20260509122416 9 230 0.0 1.6 0.00 0.53 0.25 98 1010.6
20260509121916 9 230 0.0 1.6 0.00 0.53 0.25 98 1010.7
20260509121416 9 230 0.0 1.6 0.00 0.53 0.25 97 1010.6
20260509120919 8 230 0.0 1.6 0.00 0.53 0.25 97 1010.6
20260509120417 8 230 0.0 3.2 0.00 0.53 0.25 97 1010.8
20260509115919 8 230 1.6 3.2 0.00 0.53 0.25 97 1010.7
20260509115416 8 230 0.0 3.2 0.00 0.53 0.25 97 1010.8
20260509115134 8 230 0.0 3.2 0.00 0.53 0.25 97 1010.7
20260509114416 8 230 0.0 1.6 0.00 0.53 0.25 97 1010.8
20260509114139 8 230 0.0 1.6 0.00 0.53 0.25 97 1010.8
20260509113414 8 230 0.0 1.6 0.00 0.53 0.25 97 1010.9
20260509112916 8 230 0.0 1.6 0.00 0.53 0.25 97 1010.9
20260509112417 8 230 0.0 1.6 0.00 0.53 0.25 97 1010.9
20260509112141 8 230 0.0 0.0 0.00 0.53 0.25 97 1011.0
20260509111414 8 230 0.0 0.0 0.03 0.53 0.25 97 1011.0
20260509110913 8 230 0.0 0.0 0.03 0.53 0.25 97 1011.0
20260509110412 8 230 0.0 0.0 0.03 0.53 0.25 97 1011.0
20260509105912 8 230 0.0 1.6 0.03 0.53 0.25 97 1011.0
20260509105410 8 230 0.0 1.6 0.03 0.53 0.25 97 1011.0
20260509104904 8 230 0.0 1.6 0.03 0.53 0.25 97 1011.0
20260509104405 8 230 0.0 1.6 0.03 0.53 0.25 97 1011.0
20260509103905 8 230 0.0 1.6 0.03 0.53 0.25 97 1011.1
20260509103404 7 230 0.0 1.6 0.03 0.53 0.25 97 1011.1
20260509102901 7 230 0.0 1.6 0.03 0.53 0.25 97 1011.2
20260509102400 7 230 0.0 1.6 0.03 0.53 0.25 97 1011.3
20260509101903 7 230 0.0 1.6 0.03 0.53 0.25 97 1011.4
20260509101358 7 230 0.0 1.6 0.00 0.51 0.23 97 1011.3
20260509100858 7 230 0.0 1.6 0.00 0.51 0.23 96 1011.2
20260509100358 7 230 0.0 1.6 0.00 0.51 0.23 96 1011.3
20260509095855 7 230 0.0 1.6 0.00 0.51 0.23 96 1011.2
20260509095357 7 230 0.0 1.6 0.00 0.51 0.23 96 1011.2
20260509094854 7 230 0.0 1.6 0.00 0.51 0.23 96 1011.1
20260509094355 7 230 0.0 1.6 0.00 0.51 0.23 96 1011.1
20260509093857 7 230 0.0 1.6 0.00 0.51 0.23 96 1011.1
20260509093352 7 230 0.0 1.6 0.00 0.51 0.23 96 1011.2
20260509092855 7 230 0.0 1.6 0.00 0.51 0.23 96 1011.3
20260509092350 7 230 0.0 1.6 0.00 0.51 0.23 96 1011.2
20260509091850 7 230 0.0 1.6 0.00 0.51 0.23 96 1011.2
20260509091346 7 230 0.0 0.0 0.03 0.51 0.23 96 1011.3
20260509090847 7 230 0.0 1.6 0.03 0.51 0.23 96 1011.3
20260509090558 7 230 0.0 1.6 0.03 0.51 0.23 96 1011.3
20260509085845 7 230 0.0 1.6 0.03 0.51 0.23 96 1011.4
20260509085615 7 230 0.0 1.6 0.03 0.51 0.23 96 1011.6
20260509084840 7 230 0.0 1.6 0.03 0.51 0.23 96 1011.6
20260509084343 7 230 0.0 0.0 0.03 0.51 0.23 96 1011.7
20260509083840 7 230 0.0 1.6 0.03 0.51 0.23 95 1011.6
20260509083605 7 230 0.0 1.6 0.05 0.51 0.23 95 1011.7
20260509082840 7 230 0.0 3.2 0.05 0.51 0.23 95 1011.7
20260509082340 7 230 0.0 3.2 0.05 0.51 0.23 95 1011.8
20260509081842 7 230 0.0 3.2 0.08 0.51 0.23 95 1011.7
20260509081338 7 230 0.0 3.2 0.05 0.48 0.20 95 1011.6
20260509080840 7 230 0.0 1.6 0.05 0.48 0.20 95 1011.7
20260509080338 7 230 0.0 1.6 0.08 0.48 0.20 95 1011.6
20260509080059 7 230 0.0 1.6 0.08 0.48 0.20 95 1011.5
20260509075340 7 230 0.0 1.6 0.08 0.48 0.20 95 1011.5
20260509074839 7 230 0.0 3.2 0.08 0.48 0.20 95 1011.4
20260509074603 7 230 0.0 3.2 0.10 0.48 0.20 95 1011.5
20260509073836 7 230 0.0 3.2 0.10 0.48 0.20 95 1011.5
20260509073336 7 230 0.0 1.6 0.10 0.46 0.18 95 1011.6